Regional Weather Roundup
Issued by NWS

Home | Current Version | Previous Version | Graphics & Text | Print | Product List | Glossary On
Versions: 1 2 3 4 5 6 7 8 9 10 11 12 13 14 15 16 17 18 19 20 21 22 23 24 25 26 27 28 29 30 31 32 33 34 35 36 37 38 39 40 41 42 43 44 45 46 47 48 49 50
000
ASUS45 KCYS 010010
RWRWY

WYOMING REGIONAL WEATHER ROUNDUP
NATIONAL WEATHER SERVICE CHEYENNE WY
600 PM MDT THU JUL 31 2014

NOTE:  "FAIR" INDICATES FEW OR NO CLOUDS BELOW 12,000 FEET
WITH NO SIGNIFICANT WEATHER AND/OR OBSTRUCTIONS TO VISIBILITY.

WYZ001-010100-
YELLOWSTONE NATIONAL PARK

CITY           SKY/WX    TMP DP  RH WIND       PRES   REMARKS
LK YELLOWSTONE   N/A     58  42  55 VRB3      30.46R
6HR MIN TEMP:  56; 6HR MAX TEMP:  70; 6HR PCP:  0.04;

W YELLOWSTONE  NOT AVBL

$$
WYZ002>013-054>058-071-098>099-010100-
NORTHERN WYOMING

CITY           SKY/WX    TMP DP  RH WIND       PRES   REMARKS
JACKSON        NOT AVBL
CODY           PTSUNNY   77  43  29 W12G21    30.19R
GREYBULL       SUNNY     91  32  12 VRB3      30.07F
6HR MIN TEMP:  84; 6HR MAX TEMP:  92;

WORLAND        MOSUNNY   89  31  12 CALM      30.09F
6HR MIN TEMP:  84; 6HR MAX TEMP:  90;

SHERIDAN       MOSUNNY   86  41  20 W10       30.10S
6HR MIN TEMP:  85; 6HR MAX TEMP:  92;

BUFFALO        PTSUNNY   81  42  25 W8        30.19F
6HR MIN TEMP:  75; 6HR MAX TEMP:  87;

GILLETTE       SUNNY     86  35  16 VRB3      30.13F
6HR MIN TEMP:  81; 6HR MAX TEMP:  88;

HULETT         FAIR      84  37  18 MISG      30.15
NEWCASTLE      FAIR      79  39  24 MISG      30.15

$$
WYZ014>020-022>026-101>103-010100-
CENTRAL WYOMING

CITY           SKY/WX    TMP DP  RH WIND       PRES   REMARKS
BIG PINEY      PTSUNNY   73  33  23 CALM      30.32F
6HR MIN TEMP:  68; 6HR MAX TEMP:  75;

PINEDALE       MOCLDY    73  36  25 W8        30.32F
DUBOIS         FAIR      70  36  28 NE3       30.36S
LANDER         PTSUNNY   81  25  12 CALM      30.18F
6HR MIN TEMP:  77; 6HR MAX TEMP:  85;

RIVERTON       MOSUNNY   82  15   8 E5        30.20F
6HR MIN TEMP:  74; 6HR MAX TEMP:  83;

CASPER         SUNNY     84  17   8 CALM      30.19F
6HR MIN TEMP:  77; 6HR MAX TEMP:  86;

DOUGLAS        SUNNY     82  36  19 CALM      30.19F
6HR MIN TEMP:  77; 6HR MAX TEMP:  84;


$$
WYZ021-027>030-104>119-010100-
SOUTHERN WYOMING

CITY           SKY/WX    TMP DP  RH WIND       PRES   REMARKS
EVANSTON       MOSUNNY   75  38  26 NE9       30.31F
6HR MIN TEMP:  68; 6HR MAX TEMP:  76;

KEMMERER       PTCLDY    73  36  25 E6G20     30.34F
FORT BRIDGER   FAIR      76  39  26 NE8       30.33F
ROCK SPRINGS   MOSUNNY   80  29  15 VRB6      30.28S
6HR MIN TEMP:  70; 6HR MAX TEMP:  80;

DIXON          CLOUDY    79  39  24 SE3       30.23F
RAWLINS        MOSUNNY   77  28  16 E10G21    30.28F
6HR MIN TEMP:  70; 6HR MAX TEMP:  79;

SARATOGA       FAIR      72  41  33 N7        30.29F
LARAMIE        PTSUNNY   68  40  35 E7        30.32F
6HR MIN TEMP:  65; 6HR MAX TEMP:  73;

CHEYENNE       SUNNY     74  44  34 SE6       30.27F
6HR MIN TEMP:  70; 6HR MAX TEMP:  77;

TORRINGTON     SUNNY     83  45  26 SE9       30.14F
6HR MIN TEMP:  78; 6HR MAX TEMP:  86;

PINE BLUFFS    FAIR      79  41  25 SE5       30.22S

$$



USA.gov is the U.S. government's official web portal to all federal, state and local government web resources and services.